Location: East Guldeford
(50.9500°N, 0.7500°E)
Time: 09:50:58
(UTC+00:00)

Meteor 2-4 Rocket - Pass Details

Date: 12 May 2021
Orbit: 798 x 909 km, 81.2° (Epoch: 16 June)

Event Time Altitude Azimuth Distance (km) Brightness Sun altitude
Exits shadow 22:36:04 29° 133° (SE) 1,545 4.6 -18.6°
Maximum altitude 22:38:07 38° 92° (E) 1,284 4.5 -18.7°
Drops below altitude 10° 22:43:15 10° 26° (NNE) 2,475 6.8 -19.0°
Sets 22:45:47 0° 18° (NNE) 3,397 7.7 -19.1°
